This is the latest recevied weather packets stored in our database for station/object VK2BLR. If no packets are shown the sender has not sent any weather packets the latest 10 day(s).
| Time | Temp. | Humidity | Pressure | Rain* | Wind** | Luminosity | Snow |
|---|---|---|---|---|---|---|---|
| 1787464291 | 18.89° C | 50% | 1021 hPa | 0 mm | - | - | - |
| 1787463391 | 19.44° C | 50% | 1021.2 hPa | 0 mm | - | - | - |
| 1787462490 | 19.44° C | 50% | 1021.3 hPa | 0 mm | - | - | - |
| 1787461591 | 19.44° C | 49% | 1021.3 hPa | 0 mm | - | - | - |
| 1787460691 | 19.44° C | 48% | 1021.5 hPa | 0 mm | - | - | - |
| 1787459792 | 19.44° C | 48% | 1021.4 hPa | 0 mm | - | - | - |
| 1787458891 | 19.44° C | 46% | 1021.3 hPa | 0 mm | - | - | - |
| 1787457990 | 19.44° C | 47% | 1021.4 hPa | 0 mm | - | - | - |
| 1787457092 | 19.44° C | 47% | 1021.4 hPa | 0 mm | - | - | - |
| 1787456192 | 19.44° C | 47% | 1021.5 hPa | 0 mm | - | - | - |
| 1787455292 | 20° C | 47% | 1021.5 hPa | 0 mm | - | - | - |
| 1787454392 | 19.44° C | 49% | 1021.6 hPa | 0 mm | - | - | - |
| 1787453491 | 19.44° C | 49% | 1021.7 hPa | 0 mm | - | - | - |
| 1787452591 | 20.56° C | 49% | 1021.8 hPa | 0 mm | - | - | - |
| 1787451692 | 19.44° C | 50% | 1022.1 hPa | 0 mm | - | - | - |
| 1787450791 | 19.44° C | 50% | 1022.2 hPa | 0 mm | - | - | - |
| 1787449891 | 19.44° C | 50% | 1022.6 hPa | 0 mm | - | - | - |
| 1787448991 | 19.44° C | 50% | 1022.9 hPa | 0 mm | - | - | - |
| 1787448091 | 18.89° C | 50% | 1023 hPa | 0 mm | - | - | - |
| 1787447192 | 18.89° C | 47% | 1023.2 hPa | 0 mm | - | - | - |
| 1787446291 | 19.44° C | 47% | 1023.5 hPa | 0 mm | - | - | - |
| 1787445392 | 19.44° C | 50% | 1023.6 hPa | 0 mm | - | - | - |
| 1787444491 | 18.33° C | 50% | 1023.7 hPa | 0 mm | - | - | - |
| 1787443591 | 18.33° C | 49% | 1023.5 hPa | 0 mm | - | - | - |
| 1787442692 | 18.33° C | 50% | 1023.7 hPa | 0 mm | - | - | - |
* Rain latest hour (hover to see other rain measurements)
** Current wind speed in m/s (hover to see current wind gust speed)